Terug naar catalogus

STARLINK-35098

ActiefCommunicatieVLEO
NORAD 65476·PAYLOAD·🇺🇸 United States

Gelanceerd Sep 3, 2025 vanaf Cape Canaveral Space Force Station

Loading…

Volgende Passages (komende 24 uur)

TLE

VersSource: CelesTrak SupGP

Epoch: Sep 15, 2026, 02:52 UTC

1 65476C 25195U   26258.11993056 -.00006773  00000+0 -21769-3 0  2587
2 65476  53.1576  96.3912 0001272  86.7558 255.6601 15.31720119    14

Volg STARLINK-35098 in realtime met AllMySat

Download on the App Store